Location: Dittelbrunn
(50.0738°N, 10.2196°E)
Time: 15:49:02
(UTC+00:00)

Ariane Rocket - Pass Details

Date: 18 September 2020
Orbit: 760 x 770 km, 98.7° (Epoch: 31 October)

Event Time Altitude Azimuth Distance (km) Brightness Sun altitude
Exits shadow 18:09:44 - 141° (SE) 2,998 5.6 -7.9°
Reaches altitude 10° 18:11:33 10° 135° (SE) 2,297 5.0 -8.2°
Maximum altitude 18:16:18 42° 66° (ENE) 1,081 3.4 -8.9°
Drops below altitude 10° 18:21:05 10° 356° (N) 2,317 5.7 -9.7°
Sets 18:23:29 0° 350° (N) 3,250 6.6 -10.1°
